Location: Riverside Cemetery
(38.3047°N, 99.7773°W)
Time: 10:23:34
(UTC+00:00)

ATLAS 3B R/B - Pass Details

Date: 19 September 2020
Orbit: 1016 x 1179 km, 63.8° (Epoch: 04 October)

Event Time Altitude Azimuth Distance (km) Brightness Sun altitude
Rises 04:33:03 0° 329° (NNW) 3,848 6.4 -41.7°
Reaches altitude 10° 04:35:40 10° 332° (NNW) 2,912 5.6 -42.1°
Enters shadow 04:39:00 31° 340° (NNW) 1,812 4.2 -42.5°
